| time (UTC) | temp C | wind direction | speed KPH | gust KPH | rain 1hr cm | rain 24hr cm | rain mn cm | humidity % | barometer mb |
| 20260502231753 | 11 | 89 | 1.6 | 9.7 | 0.00 | 0.00 | 0.00 | 95 | 1013.7 |
| 20260502231239 | 11 | 101 | 3.2 | 9.7 | 0.00 | 0.00 | 0.00 | 95 | 1014.1 |
| 20260502225754 | 11 | 156 | 8.0 | 11.3 | 0.00 | 0.00 | 0.00 | 95 | 1014.4 |
| 20260502224753 | 11 | 85 | 3.2 | 4.8 | 0.00 | 0.00 | 0.00 | 95 | 1013.7 |
| 20260502223754 | -17 | 68 | 1.6 | 4.8 | 0.00 | 0.00 | 0.00 | 1013.9 | |
| 20260502222753 | 11 | 68 | 0.0 | 4.8 | 0.00 | 0.00 | 0.00 | 95 | 1013.9 |
| 20260502222236 | 11 | 64 | 3.2 | 6.4 | 0.00 | 0.00 | 0.00 | 95 | 1013.9 |
| 20260502221711 | 11 | 62 | 3.2 | 6.4 | 0.00 | 0.00 | 0.00 | 95 | 1013.7 |
| 20260502215753 | 11 | 67 | 3.2 | 6.4 | 0.00 | 0.00 | 0.00 | 95 | 1013.9 |
| 20260502214754 | 11 | 37 | 1.6 | 4.8 | 0.00 | 0.00 | 0.00 | 95 | 1014.0 |
| 20260502213753 | 11 | 43 | 1.6 | 4.8 | 0.00 | 0.00 | 0.00 | 95 | 1014.1 |
| 20260502212753 | 11 | 43 | 1.6 | 4.8 | 0.00 | 0.00 | 0.00 | 94 | 1014.2 |
| 20260502211753 | 11 | 34 | 1.6 | 3.2 | 0.00 | 0.00 | 0.00 | 93 | 1014.4 |
| 20260502210755 | 11 | 34 | 0.0 | 0.0 | 0.00 | 0.00 | 0.00 | 93 | 1014.5 |
| 20260502205753 | 11 | 34 | 0.0 | 1.6 | 0.00 | 0.00 | 0.00 | 92 | 1014.5 |
| 20260502204752 | 11 | 34 | 0.0 | 3.2 | 0.00 | 0.00 | 0.00 | 92 | 1014.6 |
| 20260502203755 | 12 | 34 | 0.0 | 4.8 | 0.00 | 0.00 | 0.00 | 91 | 1014.7 |
| 20260502202754 | 12 | 20 | 1.6 | 4.8 | 0.00 | 0.00 | 0.00 | 90 | 1014.7 |
| 20260502201754 | 12 | 19 | 1.6 | 8.0 | 0.00 | 0.00 | 0.00 | 90 | 1014.8 |
| 20260502201227 | 12 | 322 | 1.6 | 9.7 | 0.00 | 0.00 | 0.00 | 90 | 1014.9 |
| 20260502195752 | 12 | 346 | 3.2 | 8.0 | 0.00 | 0.00 | 0.00 | 90 | 1014.9 |
| 20260502194750 | 13 | 336 | 3.2 | 8.0 | 0.00 | 0.00 | 0.00 | 90 | 1014.9 |
| 20260502193750 | 13 | 324 | 3.2 | 8.0 | 0.00 | 0.00 | 0.00 | 89 | 1014.9 |
| 20260502192747 | 13 | 17 | 4.8 | 11.3 | 0.00 | 0.00 | 0.00 | 89 | 1014.9 |
| 20260502192225 | 13 | 355 | 4.8 | 8.0 | 0.00 | 0.00 | 0.00 | 89 | 1015.0 |
| 20260502191229 | 14 | 324 | 6.4 | 9.7 | 0.00 | 0.00 | 0.00 | 88 | 1014.9 |
| 20260502185745 | 14 | 324 | 6.4 | 11.3 | 0.00 | 0.00 | 0.00 | 88 | 1014.9 |
| 20260502183743 | 15 | 341 | 9.7 | 16.1 | 0.00 | 0.00 | 0.00 | 85 | 1015.0 |
| 20260502182744 | 15 | 315 | 9.7 | 17.7 | 0.00 | 0.00 | 0.00 | 81 | 1015.1 |
| 20260502181741 | 16 | 310 | 9.7 | 14.5 | 0.00 | 0.00 | 0.00 | 78 | 1014.9 |
| 20260502180741 | 16 | 328 | 8.0 | 11.3 | 0.00 | 0.00 | 0.00 | 75 | 1015.1 |
| 20260502180231 | -17 | 324 | 6.4 | 14.5 | 0.00 | 0.00 | 0.00 | 1015.1 | |
| 20260502163729 | 18 | 281 | 6.4 | 16.1 | 0.00 | 0.00 | 0.00 | 66 | 1015.6 |
| 20260502163159 | 18 | 260 | 8.0 | 17.7 | 0.00 | 0.00 | 0.00 | 67 | 1015.7 |
| 20260502161727 | 18 | 317 | 6.4 | 16.1 | 0.00 | 0.00 | 0.00 | 70 | 1015.8 |
| 20260502160728 | 19 | 269 | 6.4 | 17.7 | 0.00 | 0.00 | 0.00 | 72 | 1015.8 |
| 20260502151721 | 20 | 274 | 8.0 | 22.5 | 0.00 | 0.00 | 0.00 | 75 | 1016.1 |
| 20260502150722 | 20 | 263 | 12.9 | 22.5 | 0.00 | 0.00 | 0.00 | 74 | 1016.2 |
| 20260502130711 | 21 | 274 | 14.5 | 30.6 | 0.00 | 0.00 | 0.00 | 70 | 1016.8 |
| 20260502123707 | 21 | 222 | 17.7 | 27.4 | 0.00 | 0.00 | 0.00 | 70 | 1016.9 |
| 20260502122706 | 21 | 270 | 11.3 | 24.1 | 0.00 | 0.00 | 0.00 | 72 | 1016.9 |
| 20260502121706 | 20 | 276 | 11.3 | 22.5 | 0.00 | 0.00 | 0.00 | 72 | 1017.1 |
| 20260502120704 | 21 | 249 | 14.5 | 22.5 | 0.00 | 0.00 | 0.00 | 71 | 1017.2 |
| 20260502115704 | 21 | 249 | 9.7 | 22.5 | 0.00 | 0.00 | 0.00 | 71 | 1017.2 |
| 20260502114704 | 20 | 290 | 4.8 | 19.3 | 0.00 | 0.00 | 0.00 | 71 | 1017.3 |
| 20260502113703 | 20 | 210 | 9.7 | 20.9 | 0.00 | 0.00 | 0.00 | 70 | 1017.5 |
| 20260502112705 | 20 | 281 | 9.7 | 20.9 | 0.00 | 0.00 | 0.00 | 73 | 1017.5 |
| 20260502111705 | 19 | 248 | 8.0 | 17.7 | 0.00 | 0.00 | 0.00 | 71 | 1017.7 |
| 20260502111142 | 19 | 245 | 8.0 | 14.5 | 0.00 | 0.00 | 0.00 | 74 | 1017.5 |
| 20260502105706 | 17 | 291 | 4.8 | 16.1 | 0.00 | 0.00 | 0.00 | 74 | 1017.6 |
| 20260502104705 | 17 | 202 | 9.7 | 14.5 | 0.00 | 0.00 | 0.00 | 74 | 1017.7 |
| 20260502103705 | 16 | 242 | 6.4 | 8.0 | 0.00 | 0.00 | 0.00 | 75 | 1017.6 |
| 20260502102704 | 16 | 257 | 6.4 | 9.7 | 0.00 | 0.00 | 0.00 | 75 | 1017.4 |
| 20260502101705 | 16 | 233 | 3.2 | 8.0 | 0.00 | 0.00 | 0.00 | 76 | 1017.5 |
| 20260502100706 | 15 | 255 | 6.4 | 11.3 | 0.00 | 0.00 | 0.00 | 75 | 1017.7 |
| 20260502091142 | 16 | 222 | 8.0 | 14.5 | 0.00 | 0.00 | 0.00 | 72 | 1018.0 |
| 20260502070657 | 15 | 201 | 6.4 | 11.3 | 0.00 | 0.00 | 0.00 | 71 | 1017.9 |
| 20260502065659 | 14 | 176 | 6.4 | 11.3 | 0.00 | 0.00 | 0.00 | 70 | 1017.9 |
| 20260502064658 | 13 | 184 | 6.4 | 14.5 | 0.00 | 0.00 | 0.00 | 71 | 1017.9 |
| 20260502063657 | 13 | 191 | 8.0 | 14.5 | 0.00 | 0.00 | 0.00 | 72 | 1017.8 |
| 20260502062657 | 13 | 170 | 6.4 | 11.3 | 0.00 | 0.00 | 0.00 | 73 | 1017.7 |
| 20260502061658 | 12 | 166 | 8.0 | 11.3 | 0.00 | 0.00 | 0.00 | 74 | 1017.7 |
| 20260502060659 | 12 | 159 | 4.8 | 8.0 | 0.00 | 0.00 | 0.00 | 75 | 1017.7 |
| 20260502055657 | 11 | 176 | 4.8 | 8.0 | 0.00 | 0.00 | 0.00 | 77 | 1017.7 |
| 20260502054656 | 11 | 177 | 3.2 | 8.0 | 0.00 | 0.00 | 0.00 | 78 | 1017.8 |
| 20260502053658 | 10 | 138 | 4.8 | 14.5 | 0.00 | 0.00 | 0.00 | 78 | 1017.8 |
| 20260502052657 | 10 | 188 | 4.8 | 8.0 | 0.00 | 0.00 | 0.00 | 81 | 1017.9 |
| 20260502051659 | 9 | 179 | 4.8 | 9.7 | 0.00 | 0.00 | 0.00 | 82 | 1017.9 |
| 20260502050656 | 8 | 160 | 3.2 | 6.4 | 0.00 | 0.00 | 0.00 | 82 | 1017.8 |
| 20260502045657 | 8 | 163 | 4.8 | 6.4 | 0.00 | 0.00 | 0.00 | 83 | 1017.9 |
| 20260502044659 | 8 | 152 | 3.2 | 8.0 | 0.00 | 0.00 | 0.00 | 84 | 1017.9 |
| 20260502043658 | 7 | 170 | 4.8 | 6.4 | 0.00 | 0.00 | 0.00 | 85 | 1017.8 |
| 20260502042657 | 7 | 163 | 3.2 | 6.4 | 0.00 | 0.00 | 0.00 | 85 | 1017.9 |
| 20260502041658 | 7 | 157 | 4.8 | 6.4 | 0.00 | 0.00 | 0.00 | 86 | 1017.8 |
| 20260502040657 | 7 | 171 | 4.8 | 8.0 | 0.00 | 0.00 | 0.00 | 86 | 1017.9 |
| 20260502035658 | 7 | 150 | 3.2 | 6.4 | 0.00 | 0.00 | 0.00 | 85 | 1018.2 |
| 20260502034657 | 7 | 136 | 3.2 | 6.4 | 0.00 | 0.00 | 0.00 | 85 | 1018.2 |
| 20260502033658 | 8 | 139 | 3.2 | 4.8 | 0.00 | 0.00 | 0.00 | 85 | 1018.2 |
| 20260502032659 | 8 | 135 | 3.2 | 6.4 | 0.00 | 0.00 | 0.00 | 85 | 1018.3 |
| 20260502032142 | 8 | 139 | 3.2 | 6.4 | 0.00 | 0.00 | 0.00 | 84 | 1018.3 |
| 20260502031148 | 8 | 139 | 3.2 | 6.4 | 0.00 | 0.00 | 0.00 | 84 | 1018.3 |
| 20260502025659 | 8 | 139 | 3.2 | 6.4 | 0.00 | 0.00 | 0.00 | 84 | 1018.4 |
| 20260502024656 | 8 | 136 | 3.2 | 6.4 | 0.00 | 0.00 | 0.00 | 83 | 1018.4 |
| 20260502023657 | 8 | 140 | 3.2 | 6.4 | 0.00 | 0.00 | 0.00 | 82 | 1018.5 |
| 20260502022655 | 8 | 138 | 3.2 | 6.4 | 0.00 | 0.00 | 0.00 | 82 | 1018.6 |
| 20260502021658 | 9 | 135 | 4.8 | 6.4 | 0.00 | 0.00 | 0.00 | 82 | 1018.6 |
| 20260502015655 | 9 | 143 | 4.8 | 6.4 | 0.00 | 0.00 | 0.00 | 82 | 1018.8 |
| 20260502014654 | 9 | 132 | 3.2 | 6.4 | 0.00 | 0.00 | 0.00 | 82 | 1018.8 |
| 20260502013702 | 10 | 129 | 3.2 | 6.4 | 0.00 | 0.00 | 0.00 | 82 | 1018.9 |
| 20260502012652 | 10 | 131 | 3.2 | 6.4 | 0.00 | 0.00 | 0.00 | 82 | 1019.0 |
| 20260502011654 | 10 | 125 | 3.2 | 6.4 | 0.00 | 0.00 | 0.00 | 81 | 1019.1 |
| 20260502010655 | 10 | 133 | 4.8 | 6.4 | 0.00 | 0.00 | 0.00 | 81 | 1019.3 |
| 20260502005652 | 10 | 133 | 3.2 | 6.4 | 0.00 | 0.00 | 0.00 | 81 | 1019.5 |
| 20260502005130 | 10 | 129 | 3.2 | 4.8 | 0.00 | 0.00 | 0.00 | 82 | 1019.6 |
| 20260502003652 | 10 | 126 | 3.2 | 4.8 | 0.00 | 0.00 | 0.00 | 81 | 1019.8 |
| 20260502002654 | 10 | 126 | 1.6 | 3.2 | 0.00 | 0.00 | 0.00 | 79 | 1019.8 |
| 20260502001653 | 10 | 126 | 0.0 | 3.2 | 0.00 | 0.00 | 0.00 | 79 | 1019.9 |
| 20260502000702 | 10 | 126 | 1.6 | 4.8 | 0.00 | 0.00 | 0.00 | 80 | 1019.8 |
| 20260501235653 | 10 | 126 | 3.2 | 4.8 | 0.00 | 0.00 | 0.00 | 80 | 1020.0 |
| 20260501234652 | 10 | 126 | 3.2 | 4.8 | 0.00 | 0.00 | 0.00 | 79 | 1020.1 |
| 20260501234136 | 11 | 126 | 3.2 | 3.2 | 0.00 | 0.00 | 0.00 | 78 | 1020.2 |
| 20260501232653 | 11 | 126 | 3.2 | 4.8 | 0.00 | 0.00 | 0.00 | 78 | 1020.2 |